INTELSAT 10-02

Last updated on Dec. 5, 2020, 6:14 a.m. UTC

1 28358U 04022A   20339.60736227  .00000006  00000-0  00000-0 0  9990
2 28358   0.0246 275.8029 0002945 345.8809  29.8724  1.00271092 60347
UTC
Height (km)
Latitude
Longitude
Inclination
Orbital Period
UTC large
Height (km)
Speed (km/s)
/
Latitude / Longitude
Inclination (degrees)
Orbital Period (minutes)
Azimuth
Elevation
Range (km)
Doppler Factor
iOS Compass Heading
iOS Angle

Next 30 passes for location: Hong Kong

Rise time Rise Azimuth (degrees) Set time Set Azimuth (degrees) Duration Max altitude (degrees)

No matching passes for this satellites